SCP
0 0 0 0 0 0 0 0 0 0 0 0 0 0 0 0 0 0 0 0 0 0
0 0 0 0 0 0 -0 -0 -0 -0 -0 0 0 0 0 0 0 0 0 0 0 0
0 0 0 0 0 0 -0 -0 -0 -0 -0 -0 0 0 0 0 0 0 0 0 0 0
0 0 0 0 0 0 0 0 0 -0 -0 -0 -0 0 0 0 0 0 0 0 0 0
0 0 0 0 0 0 0 0 0 0 -0 0 -0 -0 -0 0 0 0 0 0 0 0
0 0 0 0 0 0 0 0 0 0 0 0 0 0 0 0 0 0 0 0 0 0
0 0 0 0 0 0 0 0 0 0 0 0 0 0 0 0 0 0 0 0 0 0
0 0 0 0 0 0 0 0 0 0 0 0 0 0 0 0 0 0 0 0 0 0
0 0 0 0 0 0 0 0 0 0 0 0 0 0 0 0 0 0 0 0 0 0
0 0 0 0 0 0 0 0 0 0 0 0 0 0 0 0 0 0 0 0 0 0
0 0 0 0 0 0 0 0 0 0 0 0 0 0 0 0 0 0 0 0 0 0
0 0 0 0 0 0 0 0 0 0 0 0 0 0 0 0 0 0 0 0 0 0
0 0 0 0 0 0 0 0 0 0 0 0 0 0 0 0 0 0 0 0 0 0
0 0 0 0 0 0 0 0 0 0 0 0 0 0 0 0 0 0 0 0 0 0
Wind_Speed_500mb
34 29 28 34 36 35 29 20 17 14 9 42 60 51 73 85 72 81 74 65 63 65
36 32 31 32 31 28 27 25 21 23 16 24 48 55 68 79 81 74 69 59 55 52
35 32 30 33 32 27 22 22 24 24 28 28 32 45 52 60 59 57 50 50 58 55
40 33 32 34 31 31 28 29 27 31 29 31 33 43 48 50 50 55 66 67 75 71
41 39 37 36 30 24 21 21 20 30 29 31 35 41 56 59 61 60 62 65 64 65
37 43 39 33 31 22 20 24 24 25 25 23 21 23 47 51 54 54 60 65 65 65
36 33 33 39 30 33 28 22 25 25 23 23 23 22 24 42 54 63 66 64 70 72
39 37 39 43 33 28 30 28 24 21 20 28 35 34 36 30 29 39 41 46 52 50
40 40 41 44 39 34 32 31 31 32 33 34 34 34 33 31 30 38 50 49 49 54
40 41 43 43 42 38 38 38 37 37 35 35 33 33 35 39 44 45 42 45 48 52
39 40 39 40 37 37 34 33 34 34 33 31 31 36 39 41 43 46 49 52 55 57
32 34 36 36 31 30 27 27 25 21 21 17 14 14 17 20 26 30 32 33 34 36
45 43 40 37 35 35 31 32 27 22 18 16 12 11 10 8 8 10 9 7 3 5
43 43 40 35 33 35 32 29 28 27 27 22 19 17 14 15 13 14 14 16 18 20
Wind_Direction_500mb
188 190 193 205 206 209 221 236 231 259 230 224 222 219 214 202 202 196 201 202 202 206
182 188 186 194 200 205 216 229 226 231 235 217 219 218 216 204 185 193 199 208 215 217
182 185 186 184 189 202 215 233 214 212 202 213 200 199 194 197 195 192 200 219 225 229
175 189 184 187 198 207 213 220 221 211 219 202 205 206 205 207 216 215 216 225 223 227
175 177 188 177 191 189 189 206 197 205 205 213 215 228 217 220 223 226 227 228 230 233
187 185 184 176 170 177 184 186 194 202 202 200 203 218 220 224 229 231 235 238 238 240
178 177 180 179 173 192 192 183 191 199 201 209 211 218 221 229 236 238 238 243 247 253
166 167 178 178 176 182 187 185 188 187 190 203 208 213 222 227 240 237 237 245 249 251
173 175 180 178 181 182 181 183 188 193 197 202 211 210 212 219 223 234 241 243 242 246
171 174 175 177 183 190 195 197 199 205 206 214 218 221 224 221 227 235 235 237 243 247
162 163 162 169 178 184 188 191 195 203 212 219 228 233 234 236 236 238 242 245 248 251
133 147 145 142 143 144 152 150 156 167 189 204 210 230 236 242 239 237 236 240 247 252
101 101 104 104 108 111 117 113 111 116 119 124 119 119 132 132 150 166 168 163 130 70
103 97 91 95 96 99 96 94 97 97 94 95 102 102 104 107 106 101 100 97 93 86
Wind_Speed_850mb
34 29 28 34 36 35 29 20 17 14 9 42 60 51 73 85 72 81 74 65 63 65
36 32 31 32 31 28 27 25 21 23 16 24 48 55 68 79 81 74 69 59 55 52
35 32 30 33 32 27 22 22 24 24 28 28 32 45 52 60 59 57 50 50 58 55
40 33 32 34 31 31 28 29 27 31 29 31 33 43 48 50 50 55 66 67 75 71
41 39 37 36 30 24 21 21 20 30 29 31 35 41 56 59 61 60 62 65 64 65
37 43 39 33 31 22 20 24 24 25 25 23 21 23 47 51 54 54 60 65 65 65
36 33 33 39 30 33 28 22 25 25 23 23 23 22 24 42 54 63 66 64 70 72
39 37 39 43 33 28 30 28 24 21 20 28 35 34 36 30 29 39 41 46 52 50
40 40 41 44 39 34 32 31 31 32 33 34 34 34 33 31 30 38 50 49 49 54
40 41 43 43 42 38 38 38 37 37 35 35 33 33 35 39 44 45 42 45 48 52
39 40 39 40 37 37 34 33 34 34 33 31 31 36 39 41 43 46 49 52 55 57
32 34 36 36 31 30 27 27 25 21 21 17 14 14 17 20 26 30 32 33 34 36
45 43 40 37 35 35 31 32 27 22 18 16 12 11 10 8 8 10 9 7 3 5
43 43 40 35 33 35 32 29 28 27 27 22 19 17 14 15 13 14 14 16 18 20
Wind_Direction_850mb
188 190 193 205 206 209 221 236 231 259 230 224 222 219 214 202 202 196 201 202 202 206
182 188 186 194 200 205 216 229 226 231 235 217 219 218 216 204 185 193 199 208 215 217
182 185 186 184 189 202 215 233 214 212 202 213 200 199 194 197 195 192 200 219 225 229
175 189 184 187 198 207 213 220 221 211 219 202 205 206 205 207 216 215 216 225 223 227
175 177 188 177 191 189 189 206 197 205 205 213 215 228 217 220 223 226 227 228 230 233
187 185 184 176 170 177 184 186 194 202 202 200 203 218 220 224 229 231 235 238 238 240
178 177 180 179 173 192 192 183 191 199 201 209 211 218 221 229 236 238 238 243 247 253
166 167 178 178 176 182 187 185 188 187 190 203 208 213 222 227 240 237 237 245 249 251
173 175 180 178 181 182 181 183 188 193 197 202 211 210 212 219 223 234 241 243 242 246
171 174 175 177 183 190 195 197 199 205 206 214 218 221 224 221 227 235 235 237 243 247
162 163 162 169 178 184 188 191 195 203 212 219 228 233 234 236 236 238 242 245 248 251
133 147 145 142 143 144 152 150 156 167 189 204 210 230 236 242 239 237 236 240 247 252
101 101 104 104 108 111 117 113 111 116 119 124 119 119 132 132 150 166 168 163 130 70
103 97 91 95 96 99 96 94 97 97 94 95 102 102 104 107 106 101 100 97 93 86